Time,TemperatureF,DewpointF,PressureIn,WindDirection,WindDirectionDegrees,WindSpeedMPH,WindSpeedGustMPH,Humidity,HourlyPrecipIn,Conditions,Clouds,dailyrainin,SoftwareType,DateUTC
2016-07-25 00:05:00,69.0,65.0,29.97,North,360,0.0,-999.0,86,-99.99,,,-99.99,,2016-07-25 04:05:00,
2016-07-25 00:14:00,69.0,65.0,29.96,North,360,-999.9,-999.0,86,-99.99,,,-99.99,,2016-07-25 04:14:00,
2016-07-25 00:23:00,69.0,65.0,29.96,North,360,0.0,-999.0,87,-99.99,,,-99.99,,2016-07-25 04:23:00,
2016-07-25 00:33:00,69.0,65.0,29.96,North,-9999,-999.9,-999.0,87,-99.99,,,-99.99,,2016-07-25 04:33:00,
2016-07-25 00:54:00,69.0,65.0,29.96,North,360,0.0,-999.0,86,-99.99,,,-99.99,,2016-07-25 04:54:00,
2016-07-25 01:35:00,69.0,65.0,29.96,North,360,0.0,-999.0,87,-99.99,,,-99.99,,2016-07-25 05:35:00,
2016-07-25 01:45:00,69.0,65.0,29.96,North,360,0.0,-999.0,87,-99.99,,,-99.99,,2016-07-25 05:45:00,
2016-07-25 01:54:00,69.0,65.0,29.96,North,360,0.0,-999.0,88,-99.99,,,-99.99,,2016-07-25 05:54:00,
2016-07-25 02:16:00,69.0,65.0,29.95,North,360,0.0,-999.0,87,-99.99,,,-99.99,,2016-07-25 06:16:00,
2016-07-25 02:26:00,69.0,65.0,29.94,North,360,0.0,-999.0,88,-99.99,,,-99.99,,2016-07-25 06:26:00,
2016-07-25 02:44:00,69.0,65.0,29.94,North,360,0.0,-999.0,88,-99.99,,,-99.99,,2016-07-25 06:44:00,
2016-07-25 02:49:00,69.0,65.0,29.94,North,360,0.0,-999.0,88,-99.99,,,-99.99,,2016-07-25 06:49:00,
2016-07-25 03:02:00,69.0,65.0,29.94,North,360,0.0,-999.0,88,-99.99,,,-99.99,,2016-07-25 07:02:00,
2016-07-25 03:47:00,70.0,66.0,29.93,North,360,0.0,-999.0,86,-99.99,,,-99.99,,2016-07-25 07:47:00,
2016-07-25 03:56:00,70.0,66.0,29.93,North,360,0.0,-999.0,86,-99.99,,,-99.99,,2016-07-25 07:56:00,
2016-07-25 04:08:00,69.0,65.0,29.93,North,360,0.0,-999.0,87,-99.99,,,-99.99,,2016-07-25 08:08:00,
2016-07-25 04:17:00,69.0,65.0,29.95,North,360,0.0,-999.0,88,-99.99,,,-99.99,,2016-07-25 08:17:00,
2016-07-25 04:26:00,69.0,65.0,29.95,North,360,0.0,-999.0,88,-99.99,,,-99.99,,2016-07-25 08:26:00,
2016-07-25 04:38:00,68.0,64.0,29.95,North,360,0.0,-999.0,88,-99.99,,,-99.99,,2016-07-25 08:38:00,
2016-07-25 04:46:00,68.0,65.0,29.95,North,360,0.0,-999.0,89,-99.99,,,-99.99,,2016-07-25 08:46:00,
2016-07-25 05:05:00,68.0,65.0,29.95,North,360,0.0,-999.0,90,-99.99,,,-99.99,,2016-07-25 09:05:00,
2016-07-25 05:16:00,67.0,64.0,30.00,North,360,0.0,-999.0,91,-99.99,,,-99.99,,2016-07-25 09:16:00,
2016-07-25 05:24:00,67.0,64.0,30.00,North,-9999,-999.9,-999.0,91,-99.99,,,-99.99,,2016-07-25 09:24:00,
2016-07-25 05:43:00,67.0,65.0,30.00,North,360,0.0,-999.0,92,-99.99,,,-99.99,,2016-07-25 09:43:00,
2016-07-25 05:53:00,67.0,65.0,30.01,North,360,0.0,-999.0,92,-99.99,,,-99.99,,2016-07-25 09:53:00,
2016-07-25 06:33:00,67.0,65.0,30.00,North,360,-999.9,-999.0,92,-99.99,,,-99.99,,2016-07-25 10:33:00,
2016-07-25 06:43:00,67.0,65.0,30.00,North,360,0.0,-999.0,92,-99.99,,,-99.99,,2016-07-25 10:43:00,
2016-07-25 07:16:00,67.0,64.0,30.00,North,360,0.0,-999.0,90,-99.99,,,-99.99,,2016-07-25 11:16:00,
2016-07-25 07:27:00,68.0,65.0,30.00,North,360,0.0,-999.0,89,-99.99,,,-99.99,,2016-07-25 11:27:00,
2016-07-25 07:56:00,68.0,65.0,30.01,North,360,0.0,-999.0,89,-99.99,,,-99.99,,2016-07-25 11:56:00,
2016-07-25 08:01:00,68.0,65.0,30.01,North,360,0.0,-999.0,89,-99.99,,,-99.99,,2016-07-25 12:01:00,
2016-07-25 08:14:00,68.0,65.0,30.00,North,360,0.0,-999.0,89,-99.99,,,-99.99,,2016-07-25 12:14:00,
2016-07-25 08:19:00,68.0,65.0,30.00,North,360,0.0,-999.0,89,-99.99,,,-99.99,,2016-07-25 12:19:00,
2016-07-25 08:27:00,68.0,65.0,30.00,North,360,0.0,-999.0,89,-99.99,,,-99.99,,2016-07-25 12:27:00,
2016-07-25 08:49:00,70.0,66.0,30.01,North,360,0.0,-999.0,86,-99.99,,,-99.99,,2016-07-25 12:49:00,
2016-07-25 09:30:00,72.0,67.0,30.02,North,360,0.0,-999.0,84,-99.99,,,-99.99,,2016-07-25 13:30:00,
2016-07-25 09:39:00,73.0,68.0,30.00,North,360,0.0,-999.0,83,-99.99,,,-99.99,,2016-07-25 13:39:00,
2016-07-25 09:48:00,73.0,67.0,30.00,North,360,0.0,-999.0,82,-99.99,,,-99.99,,2016-07-25 13:48:00,
2016-07-25 10:06:00,74.0,67.0,30.01,North,360,0.0,-999.0,79,-99.99,,,-99.99,,2016-07-25 14:06:00,
2016-07-25 10:17:00,75.0,68.0,30.00,North,360,0.0,-999.0,78,-99.99,,,-99.99,,2016-07-25 14:17:00,
2016-07-25 10:26:00,75.0,68.0,30.00,North,360,0.0,-999.0,78,-99.99,,,-99.99,,2016-07-25 14:26:00,
2016-07-25 10:35:00,76.0,68.0,29.99,North,360,0.0,-999.0,76,-99.99,,,-99.99,,2016-07-25 14:35:00,
2016-07-25 10:48:00,76.0,68.0,29.99,North,360,0.0,-999.0,76,-99.99,,,-99.99,,2016-07-25 14:48:00,
2016-07-25 11:15:00,78.0,69.0,29.98,North,360,0.0,-999.0,74,-99.99,,,-99.99,,2016-07-25 15:15:00,
2016-07-25 11:55:00,79.0,68.0,29.97,North,360,0.0,-999.0,69,-99.99,,,-99.99,,2016-07-25 15:55:00,
2016-07-25 12:13:00,80.0,68.0,29.97,North,360,0.0,-999.0,67,-99.99,,,-99.99,,2016-07-25 16:13:00,
2016-07-25 12:23:00,78.0,68.0,29.98,North,360,-999.9,-999.0,71,-99.99,,,-99.99,,2016-07-25 16:23:00,
2016-07-25 12:33:00,78.0,68.0,29.98,North,360,0.0,-999.0,71,-99.99,,,-99.99,,2016-07-25 16:33:00,
2016-07-25 13:16:00,79.0,67.0,29.97,North,360,-999.9,-999.0,67,-99.99,,,-99.99,,2016-07-25 17:16:00,
2016-07-25 13:25:00,78.0,67.0,29.96,North,360,-999.9,-999.0,69,-99.99,,,-99.99,,2016-07-25 17:25:00,
2016-07-25 13:38:00,78.0,67.0,29.96,North,360,-999.9,-999.0,69,-99.99,,,-99.99,,2016-07-25 17:38:00,
2016-07-25 13:44:00,79.0,68.0,29.97,North,360,-999.9,-999.0,68,-99.99,,,-99.99,,2016-07-25 17:44:00,
2016-07-25 14:07:00,78.0,68.0,29.96,North,360,0.0,-999.0,72,-99.99,,,-99.99,,2016-07-25 18:07:00,
2016-07-25 14:14:00,78.0,66.0,29.96,North,360,0.0,-999.0,67,-99.99,,,-99.99,,2016-07-25 18:14:00,
2016-07-25 14:24:00,79.0,65.0,29.95,North,360,0.0,-999.0,63,-99.99,,,-99.99,,2016-07-25 18:24:00,
2016-07-25 14:32:00,79.0,65.0,29.95,North,360,0.0,-999.0,63,-99.99,,,-99.99,,2016-07-25 18:32:00,
2016-07-25 14:39:00,79.0,67.0,29.95,North,360,1.0,-999.0,66,-99.99,,,-99.99,,2016-07-25 18:39:00,
2016-07-25 14:48:00,78.0,67.0,29.95,North,360,1.0,-999.0,70,-99.99,,,-99.99,,2016-07-25 18:48:00,
2016-07-25 15:01:00,78.0,67.0,29.95,North,360,1.0,-999.0,70,-99.99,,,-99.99,,2016-07-25 19:01:00,
2016-07-25 15:07:00,80.0,68.0,29.93,North,360,0.0,-999.0,67,-99.99,,,-99.99,,2016-07-25 19:07:00,